EHI
0 0 0 0 0 0 0 0 0 0 0 0 0 2 5 9 12 15 19 27 33 37 43 50 54 54 53 51 47 43 44 42 38 34 29 23 19 14 12 11 8 4 1 0
0 0 0 0 0 0 0 0 0 0 0 0 0 2 5 8 10 13 18 24 30 37 46 53 54 53 53 52 48 45 46 45 42 37 30 23 19 14 12 10 7 4 1 0
0 0 0 0 0 0 0 0 0 0 0 0 0 1 4 5 6 11 18 24 29 36 47 55 55 52 51 51 48 46 47 47 45 40 31 24 20 17 13 10 7 5 2 0
0 0 0 0 0 0 0 0 0 0 0 0 0 1 3 4 4 9 19 27 31 35 44 54 57 53 48 45 43 44 46 46 45 40 33 27 23 17 13 11 9 6 4 2
0 0 0 0 0 0 0 0 0 0 0 0 0 0 1 2 3 8 17 27 33 37 42 51 56 54 45 38 37 40 42 44 43 39 35 30 24 17 13 13 12 10 7 6
0 0 0 0 0 0 0 0 0 0 0 0 0 0 0 0 1 6 15 26 34 37 41 47 52 52 44 37 36 38 39 41 41 38 34 31 26 21 18 17 15 13 12 11
0 0 0 0 0 0 0 0 0 0 0 0 0 0 0 0 0 4 15 28 35 36 38 43 46 47 45 41 40 41 42 42 39 34 31 28 25 22 19 17 14 14 13 11
0 0 0 0 0 0 0 0 0 0 0 0 0 0 0 0 0 3 14 29 38 37 34 37 40 43 46 46 45 46 45 42 38 33 29 24 20 16 13 11 10 11 10 7
0 0 0 0 0 0 0 0 0 0 0 0 0 0 0 0 2 5 15 28 39 39 34 34 38 41 46 48 46 45 44 40 36 34 28 23 18 13 9 7 6 6 6 4
0 0 0 0 0 0 0 0 0 0 0 0 0 0 0 1 4 8 16 28 36 37 35 37 40 41 42 43 42 41 40 37 34 31 25 21 18 14 9 5 4 3 4 3
0 0 0 0 0 0 0 0 0 0 0 0 0 0 0 1 4 9 17 28 35 36 36 40 42 39 35 34 34 35 35 32 29 24 19 17 15 11 7 4 3 2 2 2
0 0 0 0 0 0 0 0 0 0 0 0 0 0 0 0 3 10 19 30 38 42 43 44 44 38 31 27 28 30 29 26 22 18 16 15 13 9 5 3 3 1 1 1
0 0 0 0 0 0 0 0 0 0 0 0 0 0 0 0 3 10 20 33 45 51 51 49 46 40 31 26 25 25 24 20 17 16 15 14 11 8 5 4 4 4 3 2
0 0 0 0 0 0 0 0 0 0 0 0 0 0 0 1 5 11 22 36 49 53 53 51 49 43 35 28 25 24 23 18 14 13 13 12 9 6 5 4 5 5 3 1
0 0 0 0 0 0 0 0 0 0 0 0 0 0 0 2 8 17 27 40 49 51 51 51 50 45 39 33 27 24 22 17 14 13 13 11 7 4 4 4 4 4 2 1
0 0 0 0 0 0 0 0 0 0 0 0 0 0 1 5 13 22 31 41 48 49 49 50 49 48 43 36 29 24 21 18 17 15 13 9 6 4 3 3 3 3 3 2
0 0 0 0 0 0 0 0 0 0 0 0 0 1 4 7 14 22 29 39 47 48 48 50 50 47 44 36 28 22 18 16 16 13 10 7 5 5 3 1 2 4 5 4
0 0 0 0 0 0 0 0 0 0 0 1 1 3 6 8 12 19 27 37 44 48 52 56 54 47 40 33 25 18 13 11 10 8 6 3 3 3 2 1 2 4 5 4
0 0 0 0 0 0 0 0 0 0 1 4 6 6 7 8 9 17 29 39 46 51 57 60 55 46 38 31 24 17 11 7 6 5 3 2 1 2 2 1 1 3 3 2
0 0 0 0 0 0 0 0 0 0 3 8 11 11 11 11 13 22 35 45 52 58 61 59 51 42 35 31 26 20 13 8 6 5 5 3 3 2 1 0 0 2 2 1
0 0 0 0 0 0 1 1 2 2 5 11 15 16 17 20 25 33 42 50 59 63 61 55 47 38 34 32 28 23 15 9 6 7 7 6 4 2 1 0 1 2 2 2
1 0 0 0 0 0 1 3 5 8 12 16 21 23 24 27 31 36 42 49 58 60 55 49 43 39 35 32 28 22 14 8 6 8 8 6 4 3 2 1 2 3 3 3
1 1 1 0 0 0 1 4 8 15 20 23 25 26 26 26 28 31 35 40 46 47 46 43 40 37 34 31 26 19 11 7 6 7 6 5 5 5 4 3 3 3 2 2
2 2 2 1 0 2 3 6 11 18 24 25 24 24 23 24 26 27 30 33 34 36 36 35 33 30 27 24 20 14 9 7 7 6 5 6 7 6 5 4 3 2 1 1
3 4 4 3 3 5 8 11 14 18 20 20 20 21 22 26 28 27 27 29 31 31 30 27 24 21 17 14 12 9 7 7 8 6 5 6 7 5 5 4 3 2 1 1
4 5 6 6 5 8 12 14 15 16 17 17 18 19 23 29 30 27 26 29 30 29 26 22 19 16 11 8 7 7 6 7 8 7 6 5 5 4 4 4 2 1 1 0
Wind_Speed
8 10 10 8 7 5 4 5 4 1 3 6 5 4 1 2 3 4 6 7 8 9 10 11 12 12 13 13 14 13 13 12 10 8 8 8 7 6 6 6 7 8 7 7
9 13 8 3 5 7 8 8 6 2 1 5 5 5 2 2 3 3 4 6 8 9 10 11 12 13 13 14 14 13 13 12 12 9 7 6 6 5 5 5 6 8 8 8
14 2 4 8 9 9 9 9 6 4 4 5 7 8 5 4 3 4 4 5 7 9 11 11 12 13 13 13 14 12 12 12 12 10 7 6 5 5 6 7 7 8 9 9
12 7 6 10 11 10 9 6 6 6 8 4 3 7 3 3 4 5 5 5 6 7 9 10 11 12 12 12 12 12 12 12 11 10 9 10 8 8 7 6 6 6 8 8
10 10 11 12 10 10 4 1 4 6 7 8 6 8 1 4 3 4 4 4 4 6 8 10 10 11 10 11 11 11 11 11 11 11 11 10 9 7 5 5 6 6 7 8
6 6 9 10 8 9 5 5 5 7 8 9 5 7 3 1 1 1 2 3 4 6 7 8 9 9 9 9 10 10 11 11 11 11 10 10 10 8 7 7 6 6 6 6
11 11 9 7 10 10 11 10 8 9 8 5 2 6 2 3 1 2 2 4 5 7 8 8 9 10 9 10 10 10 10 10 10 11 10 10 9 9 9 8 7 7 6 6
13 12 14 12 13 10 14 14 9 6 5 4 6 6 1 2 1 1 3 6 7 8 8 8 8 9 9 10 10 10 10 9 9 9 8 8 9 7 6 7 6 7 6 6
10 8 8 10 11 11 11 13 11 8 6 6 4 2 3 3 3 4 6 8 8 8 8 8 7 8 8 8 9 9 9 8 8 8 8 7 7 7 6 6 7 6 5 6
6 7 9 9 8 8 9 9 7 9 7 8 6 6 3 3 4 6 7 8 9 9 9 8 7 8 7 7 7 7 8 8 8 7 7 6 7 7 6 6 6 6 6 6
10 9 9 11 12 13 11 10 9 9 8 7 5 2 3 1 3 6 7 8 9 9 9 9 8 8 8 8 8 7 7 7 6 6 6 6 5 5 5 5 5 5 5 6
13 9 9 10 5 4 12 13 13 10 8 8 8 1 6 1 2 4 7 8 9 9 9 9 9 8 8 8 8 7 6 6 5 5 5 5 4 4 4 5 4 4 4 5
11 9 10 10 10 9 10 12 12 12 8 9 10 3 7 3 3 5 7 9 9 10 10 10 9 9 8 8 7 7 7 6 5 5 5 4 4 4 3 3 3 4 4 4
7 10 12 11 7 13 14 13 13 14 11 11 11 8 4 4 4 5 7 9 10 11 10 10 9 9 8 8 7 7 6 6 5 5 4 4 3 3 3 3 2 2 3 3
7 10 12 11 5 6 10 12 14 16 15 12 9 10 8 5 4 5 8 10 11 11 11 11 10 9 9 8 8 7 6 6 5 5 4 4 3 3 3 2 2 2 2 2
5 7 9 11 10 10 10 10 12 14 13 13 11 9 4 1 3 6 9 11 12 12 12 12 11 10 10 9 8 7 7 6 6 5 5 4 4 3 3 2 2 3 2 2
5 6 8 11 9 10 14 13 13 12 11 11 11 7 2 3 5 7 10 12 12 12 12 12 11 10 10 9 9 8 7 7 6 6 5 4 4 4 4 3 3 3 3 4
4 6 7 8 8 14 6 3 8 11 10 9 8 5 3 3 3 5 7 10 11 12 12 12 11 11 10 10 9 8 8 7 6 6 5 5 4 4 4 4 4 3 3 3
6 6 7 9 12 11 5 4 5 9 9 6 7 6 3 1 4 6 7 8 10 11 11 11 11 11 11 10 10 9 8 7 6 6 5 5 4 5 5 5 4 3 3 4
8 7 9 9 12 12 6 4 1 6 8 0 3 4 3 5 7 4 6 6 8 9 10 11 11 11 11 10 10 9 8 7 6 5 5 5 5 5 5 5 4 4 4 4
11 10 12 12 12 7 4 2 5 9 1 4 3 3 4 4 3 3 6 7 8 9 10 11 11 10 10 10 9 8 8 7 6 5 5 5 5 5 5 4 4 4 4 4
10 10 11 11 13 7 5 1 3 4 6 4 4 3 2 0 1 3 6 8 9 10 10 10 10 9 9 9 9 8 7 6 6 6 6 5 5 4 4 5 4 4 4 4
6 4 4 5 2 5 4 3 5 6 6 5 5 3 1 1 2 4 6 7 8 9 9 9 9 10 8 8 7 8 7 6 6 6 5 5 5 4 4 4 4 4 3 3
3 1 4 4 2 2 3 3 5 5 6 5 4 2 0 2 3 5 6 7 7 8 8 8 9 9 8 7 7 7 7 6 6 6 5 5 5 4 4 2 2 2 2 2
2 3 4 5 2 2 2 5 6 6 5 4 3 2 2 2 3 5 6 7 7 7 7 7 7 8 8 7 7 7 6 6 6 6 5 4 4 5 4 3 2 1 2 2
4 4 5 3 3 4 4 6 6 5 4 3 3 3 3 3 4 5 6 6 7 7 7 7 7 8 8 7 7 6 6 6 6 5 5 4 4 4 4 4 5 9 7 8
Wind_Direction
195 221 220 218 233 277 279 267 261 295 342 296 277 277 254 196 196 187 183 186 187 186 178 177 180 180 178 179 184 189 190 186 188 190 194 196 197 200 204 208 200 201 205 201
200 225 227 222 218 232 241 250 247 224 350 294 287 275 235 207 210 213 203 197 190 182 174 175 181 182 186 187 190 192 193 190 192 192 192 198 196 202 205 210 204 207 206 206
221 182 194 203 209 221 233 250 261 284 288 238 271 241 200 180 192 201 210 205 192 184 179 176 181 185 189 192 194 195 192 190 193 190 187 185 191 203 205 207 207 207 210 211
232 194 190 208 214 226 231 237 255 265 267 248 275 282 181 182 201 203 204 199 188 184 181 176 182 186 191 193 192 192 189 190 190 188 195 195 202 211 213 206 201 201 210 212
209 205 207 217 215 221 244 207 238 256 261 269 234 271 232 172 223 199 191 187 186 178 176 175 181 183 186 188 186 186 186 189 191 194 199 203 213 217 213 203 198 209 210 216
215 197 222 228 220 216 195 199 211 238 248 248 248 269 261 127 317 257 169 162 171 165 162 165 171 171 174 178 179 178 183 190 191 197 204 209 215 214 210 207 205 211 211 214
208 207 206 213 195 190 206 220 220 217 220 233 148 254 289 44 351 303 192 160 158 155 155 158 164 168 170 174 174 175 180 186 191 196 202 208 212 212 214 218 216 216 217 217
203 205 199 204 215 198 210 226 244 260 249 191 177 246 79 84 97 214 163 146 148 152 150 151 157 165 168 170 171 173 177 182 187 196 202 208 213 216 218 220 224 221 223 225
211 204 172 202 216 226 208 228 249 262 271 271 226 227 209 162 173 160 151 148 149 149 147 148 147 152 157 164 167 170 170 173 182 194 199 206 208 213 216 220 224 228 227 227
223 206 171 172 190 217 249 225 217 240 247 251 231 234 237 174 165 162 164 160 151 148 149 147 145 145 148 151 154 158 162 171 177 188 195 196 203 205 213 221 223 226 225 228
224 219 172 181 204 193 195 210 224 234 251 264 251 199 103 179 175 173 170 165 158 156 152 147 145 144 144 146 148 152 157 167 175 182 187 194 198 199 203 213 222 224 223 221
212 227 215 199 176 249 214 214 212 224 223 245 273 218 110 151 173 180 168 161 159 158 152 149 148 148 149 149 151 152 157 164 168 172 178 186 190 193 200 208 213 216 218 222
191 214 214 201 194 201 220 220 222 233 239 238 247 222 123 154 177 172 169 161 160 161 157 155 154 156 154 151 151 152 156 157 160 164 172 178 187 188 195 204 207 208 208 216
214 219 229 227 210 191 204 211 216 224 228 232 242 261 210 205 196 173 167 164 164 163 163 163 161 161 158 155 153 154 151 149 153 159 165 172 182 182 186 187 189 195 198 204
220 221 228 251 245 217 212 209 208 221 239 249 245 247 251 242 221 184 171 167 167 168 169 169 167 163 160 156 154 150 145 145 148 149 150 155 158 155 150 148 157 161 166 175
223 239 222 229 229 228 233 224 214 221 234 246 255 258 257 220 177 174 174 174 174 174 174 171 167 163 161 158 154 148 145 144 145 143 136 131 133 129 127 128 128 129 128 125
207 224 226 222 206 217 227 222 218 217 224 236 242 249 236 209 199 191 184 182 180 177 174 171 167 164 159 155 151 148 146 145 144 138 131 127 126 124 120 122 121 119 111 104
239 233 233 226 199 225 218 203 228 229 231 239 257 270 260 254 220 201 194 187 181 177 172 166 161 157 154 151 147 147 147 147 145 140 137 136 133 126 120 115 108 104 102 101
229 237 237 229 222 224 185 180 218 224 229 242 249 256 259 216 197 188 184 187 180 173 166 160 158 154 150 149 149 149 149 148 148 146 144 142 139 133 129 122 115 110 106 103
196 230 244 230 239 231 196 134 200 237 222 208 264 254 234 204 229 162 153 169 165 161 155 152 150 148 149 149 151 153 152 152 154 150 146 142 143 140 134 127 124 118 115 114
193 206 228 232 235 234 69 94 198 223 225 27 341 302 241 226 325 77 141 152 152 149 148 148 148 149 148 150 152 154 152 151 148 142 139 134 135 136 135 130 131 132 131 123
216 211 214 228 235 219 64 181 242 357 0 350 336 318 290 233 79 114 133 140 144 142 144 146 143 140 143 149 153 150 146 140 140 140 138 137 139 140 136 137 137 139 142 140
244 291 259 248 258 52 30 2 3 340 330 333 329 331 310 178 144 128 131 136 139 138 139 142 139 135 137 145 152 146 136 137 140 139 138 136 135 133 136 143 148 150 156 158
187 283 265 250 185 24 4 4 356 346 335 332 332 334 239 154 137 130 130 131 130 130 134 137 137 136 134 138 140 134 135 140 140 138 136 137 139 135 123 122 138 148 151 153
289 246 239 243 274 297 82 19 2 356 357 7 30 51 84 124 129 127 126 126 126 126 126 130 133 131 130 132 131 132 138 144 143 142 143 142 136 128 119 99 58 82 74 45
246 268 274 288 9 324 340 350 342 346 4 26 46 62 77 105 115 120 121 123 124 123 124 127 128 128 127 126 124 126 134 143 145 144 143 143 139 135 133 123 93 55 61 60